Le nostre stazioni meteo in Italia

Pubblicità
Il mio iltempo24.it
Salsburgh, Gran Bretagna (99024): Temperatura & dewpoint: 14.08.2017 05:00:00 - 20.08.2017 05:00:00 (BST)Salsburgh, Gran Bretagna (99024): velocità del vento & gusts: 14.08.2017 05:00:00 - 20.08.2017 05:00:00 (BST)Salsburgh, Gran Bretagna (99024): direzione del vento: 14.08.2017 05:00:00 - 20.08.2017 05:00:00 (BST)Salsburgh, Gran Bretagna (99024): visibility: 14.08.2017 05:00:00 - 20.08.2017 05:00:00 (BST)Salsburgh, Gran Bretagna (99024): precipitazioni: 14.08.2017 05:00:00 - 20.08.2017 05:00:00 (BST)
Data & Tempo tt [°C] td [°C] ff [km/h] ff [kn] fx [km/h] fx [kn] dd vv [km] rr [mm]
20.08.2017 05:00:00 - - - - - - - - -
20.08.2017 04:00:00 10,8 10,7 16 9 - - OSO - 0,0
20.08.2017 03:00:00 10,9 10,7 13 7 - - OSO - 0,0
20.08.2017 02:00:00 10,9 10,4 15 8 - - O - 0,0
20.08.2017 01:00:00 10,8 10,5 16 9 - - OSO - 0,0
20.08.2017 00:00:00 10,9 10,4 15 8 - - SO - 0,0
19.08.2017 23:00:00 10,9 10,4 18 10 - - O - 0,0
19.08.2017 22:00:00 11,0 10,6 22 12 - - O - 0,0
19.08.2017 21:00:00 11,5 10,7 22 12 - - O - 0,0
19.08.2017 20:00:00 12,4 11,0 31 17 46 25 O - 0,0
19.08.2017 19:00:00 13,2 11,2 34 18 50 27 O - 0,0
19.08.2017 18:00:00 12,5 11,7 29 16 54 29 O - 0,0
19.08.2017 17:00:00 12,3 12,0 37 20 61 33 O - 0,2
19.08.2017 16:00:00 11,9 11,6 41 22 74 40 O - 0,8
19.08.2017 15:00:00 11,8 11,4 37 20 67 36 O - 0,6
19.08.2017 14:00:00 12,4 11,1 44 24 65 35 O - 0,0
19.08.2017 13:00:00 13,3 10,9 42 23 61 33 O - 0,0
19.08.2017 12:00:00 12,9 10,6 37 20 61 33 O - 0,2
19.08.2017 11:00:00 11,9 9,6 39 21 57 31 O - 0,0
19.08.2017 10:00:00 11,4 8,9 31 17 48 26 O - 0,0
19.08.2017 09:00:00 10,7 8,8 31 17 - - O - 0,0
19.08.2017 08:00:00 9,9 8,4 29 16 - - OSO - 0,0
19.08.2017 07:00:00 9,5 8,8 22 12 - - OSO - 0,0
19.08.2017 06:00:00 9,4 8,8 24 13 - - OSO - 0,0
19.08.2017 05:00:00 9,6 8,7 28 15 - - O - 0,0
19.08.2017 04:00:00 9,9 9,2 26 14 - - O - 0,2
19.08.2017 03:00:00 10,0 9,2 31 17 - - OSO - 0,0
19.08.2017 02:00:00 9,8 8,7 28 15 - - O - 0,0
19.08.2017 01:00:00 10,4 9,7 22 12 - - O - 0,0
19.08.2017 00:00:00 10,7 10,3 24 13 46 25 O - 0,2
18.08.2017 23:00:00 11,3 11,2 31 17 - - O - 0,0
18.08.2017 22:00:00 11,0 10,9 24 13 - - SO - 0,2
18.08.2017 21:00:00 11,1 10,4 26 14 - - SO - 0,0
18.08.2017 20:00:00 11,0 10,3 29 16 - - SO - 0,0
18.08.2017 19:00:00 11,2 10,8 24 13 52 28 OSO - 1,4
18.08.2017 18:00:00 12,5 9,4 37 20 50 27 OSO - 0,0
18.08.2017 17:00:00 12,6 9,5 31 17 48 26 OSO - 0,0
18.08.2017 16:00:00 11,8 9,8 31 17 52 28 OSO - 0,0
18.08.2017 15:00:00 12,0 10,6 34 18 - - SO - 0,2
18.08.2017 14:00:00 10,5 9,2 34 18 50 27 OSO - 0,2
18.08.2017 13:00:00 10,6 10,2 24 13 55 30 OSO - 1,6
18.08.2017 12:00:00 11,4 10,5 34 18 46 25 OSO - 1,0
18.08.2017 11:00:00 11,5 11,2 31 17 48 26 OSO - 0,6
18.08.2017 10:00:00 11,1 10,3 29 16 - - SO - 0,0
18.08.2017 09:00:00 10,2 9,9 26 14 - - SO - 0,2
18.08.2017 08:00:00 10,0 9,8 29 16 46 25 OSO - 0,0
18.08.2017 07:00:00 9,9 9,8 29 16 - - OSO - 0,2
18.08.2017 06:00:00 9,9 9,6 26 14 48 26 OSO - 1,2
18.08.2017 05:00:00 11,9 11,2 21 11 - - SSO - 0,0
18.08.2017 04:00:00 11,8 11,4 11 6 - - SSO - 0,0
18.08.2017 03:00:00 12,2 11,6 21 11 - - SSO - 0,0
18.08.2017 02:00:00 11,4 11,2 16 9 - - SSE - 3,6
18.08.2017 01:00:00 11,2 10,2 21 11 - - SSO - 3,0
18.08.2017 00:00:00 12,2 11,3 21 11 - - S - 0,0
17.08.2017 23:00:00 12,5 11,4 22 12 - - S - 0,0
17.08.2017 22:00:00 13,0 11,7 24 13 - - S - 0,0
17.08.2017 21:00:00 12,8 11,1 15 8 - - S - 0,0
17.08.2017 20:00:00 14,5 11,2 24 13 - - S - 0,0
17.08.2017 19:00:00 15,9 11,4 28 15 46 25 S - 0,0
17.08.2017 18:00:00 16,4 11,3 34 18 - - SSO - 0,0
17.08.2017 17:00:00 15,8 11,6 34 18 52 28 SSO - 0,0
17.08.2017 16:00:00 16,5 11,2 35 19 52 28 SSO - 0,0
17.08.2017 15:00:00 17,5 12,1 35 19 55 30 SO - 0,0
17.08.2017 14:00:00 17,0 11,2 37 20 52 28 SSO - 0,0
17.08.2017 13:00:00 18,0 12,0 34 18 52 28 SSO - 0,0
17.08.2017 12:00:00 16,4 11,6 35 19 50 27 SSO - 0,0
17.08.2017 11:00:00 15,4 11,2 29 16 - - SO - 0,0
17.08.2017 10:00:00 14,4 11,5 21 11 - - SO 10 0,0
17.08.2017 09:00:00 12,8 12,0 18 10 - - SSO - 0,0
17.08.2017 08:00:00 11,5 11,5 13 7 - - SSO - 0,0
17.08.2017 07:00:00 10,9 10,8 15 8 - - SSO - 0,0
17.08.2017 06:00:00 10,5 10,1 15 8 - - SSO - 0,0
17.08.2017 05:00:00 10,5 9,8 9 5 - - SSO - 0,0
17.08.2017 04:00:00 11,5 11,1 8 4 - - OSO - 0,0
17.08.2017 03:00:00 12,8 12,5 21 11 - - OSO - 0,2
17.08.2017 02:00:00 13,9 13,8 21 11 - - SSO - 0,2
17.08.2017 01:00:00 13,9 13,8 22 12 - - S - 2,0
17.08.2017 00:00:00 14,0 13,8 28 15 - - S - 1,2
16.08.2017 23:00:00 14,0 13,6 29 16 50 27 S - 0,4
16.08.2017 22:00:00 14,1 13,5 39 21 59 32 S - 0,2
16.08.2017 21:00:00 14,1 13,0 42 23 63 34 S - 0,0
16.08.2017 20:00:00 13,8 13,2 44 24 68 37 S - 0,4
16.08.2017 19:00:00 14,3 12,6 50 27 80 43 S - 0,0
16.08.2017 18:00:00 14,5 12,5 48 26 74 40 S - 0,0
16.08.2017 17:00:00 14,6 12,7 48 26 68 37 S - 0,0
16.08.2017 16:00:00 13,4 12,6 42 23 65 35 S - 0,4
16.08.2017 15:00:00 12,9 11,7 39 21 61 33 S - 1,0
16.08.2017 14:00:00 13,3 12,1 34 18 55 30 S - 0,0
16.08.2017 13:00:00 13,0 11,2 34 18 52 28 S - 0,0
16.08.2017 12:00:00 12,5 10,9 31 17 52 28 S - 1,2
16.08.2017 11:00:00 13,7 10,2 28 15 54 29 S - 0,0
16.08.2017 10:00:00 14,1 10,5 163 88 54 29 N 23 0,0
16.08.2017 09:00:00 13,6 11,4 34 18 46 25 S - 0,0
16.08.2017 08:00:00 11,8 10,9 26 14 - - SSE - 0,0
16.08.2017 07:00:00 10,7 10,4 21 11 - - SSE - 0,0
16.08.2017 06:00:00 10,4 10,0 21 11 - - SSE - 0,0
16.08.2017 05:00:00 10,2 9,7 16 9 - - SSE - 0,0
16.08.2017 04:00:00 9,8 9,2 15 8 - - SSE - 0,0
16.08.2017 03:00:00 9,2 8,8 13 7 - - SSE - 0,0
16.08.2017 02:00:00 9,1 8,6 15 8 - - S - 0,0
16.08.2017 01:00:00 9,1 8,6 11 6 - - S - 0,0
16.08.2017 00:00:00 9,4 8,6 15 8 - - SO - 0,0
15.08.2017 23:00:00 10,4 9,4 18 10 - - SO - 0,0
15.08.2017 22:00:00 10,3 8,9 13 7 - - SSO - 0,0
15.08.2017 21:00:00 11,5 9,7 18 10 - - SO - 0,0
15.08.2017 20:00:00 12,5 9,8 22 12 - - OSO - 0,0
15.08.2017 19:00:00 13,9 9,8 28 15 48 26 OSO - 0,0
15.08.2017 18:00:00 14,7 10,1 29 16 48 26 OSO - 0,0
15.08.2017 17:00:00 15,6 11,1 34 18 52 28 OSO - 0,0
15.08.2017 16:00:00 14,5 9,9 35 19 50 27 OSO - 0,0
15.08.2017 15:00:00 15,1 9,7 29 16 46 25 OSO - 0,0
15.08.2017 14:00:00 15,3 10,3 28 15 46 25 OSO - 0,0
15.08.2017 13:00:00 15,4 9,8 29 16 - - OSO - 0,0
15.08.2017 12:00:00 15,5 11,3 26 14 - - SO - 0,0
15.08.2017 11:00:00 13,0 10,3 22 12 - - OSO - 0,0
15.08.2017 10:00:00 12,7 11,3 16 9 - - O 10 0,0
15.08.2017 09:00:00 11,8 11,3 18 10 - - O - 0,0
15.08.2017 08:00:00 10,8 10,8 18 10 - - OSO - 0,0
15.08.2017 07:00:00 10,9 10,9 16 9 - - O - 0,0
15.08.2017 06:00:00 11,4 11,4 16 9 - - O - 0,4
15.08.2017 05:00:00 11,9 11,9 18 10 - - OSO - 1,8
15.08.2017 04:00:00 12,0 12,0 8 4 - - SO - 0,8
15.08.2017 03:00:00 11,7 11,7 9 5 - - SSO - 1,6
15.08.2017 02:00:00 11,8 11,7 8 4 - - S - 1,8
15.08.2017 01:00:00 11,7 11,5 5 3 - - S - 1,4
15.08.2017 00:00:00 12,2 11,9 8 4 - - SO - 1,2
14.08.2017 23:00:00 12,8 12,7 9 5 - - SSO - 0,4
14.08.2017 22:00:00 13,2 13,0 15 8 - - S 10 1,2
14.08.2017 21:00:00 13,5 13,3 16 9 - - S - 0,8
14.08.2017 20:00:00 13,7 13,3 24 13 - - S - 1,0
14.08.2017 19:00:00 14,1 13,5 28 15 - - S - 0,2
14.08.2017 18:00:00 14,7 13,4 29 16 - - S - 0,0
14.08.2017 17:00:00 14,9 13,5 31 17 48 26 S - 0,0
14.08.2017 16:00:00 14,9 13,7 34 18 55 30 S - 0,2
14.08.2017 15:00:00 15,2 13,9 35 19 55 30 S - 0,0
14.08.2017 14:00:00 13,9 13,1 39 21 55 30 S - 0,0
14.08.2017 13:00:00 14,4 12,7 29 16 52 28 S - 0,0
14.08.2017 12:00:00 13,4 12,7 34 18 48 26 S - 0,0
14.08.2017 11:00:00 12,3 11,6 34 18 48 26 SSE - 0,6
14.08.2017 10:00:00 12,1 11,3 2 1 52 28 N 80 0,2
14.08.2017 09:00:00 11,7 11,1 28 15 - - SSE - 0,4
14.08.2017 08:00:00 10,6 10,1 16 9 - - SE - 1,2
14.08.2017 07:00:00 10,1 8,9 15 8 - - ESE - 0,4
14.08.2017 06:00:00 10,6 8,4 18 10 - - ESE - 0,0
14.08.2017 05:00:00 10,7 8,1 13 7 - - SE - 0,2

tt = Temperatura
td = dewpoint
ff = velocità del vento
fx = gusts
dd = direzione del vento
vv = visibility
rr = precipitazioni

Stazioni seguenti

WeatherPro
AMSI
MeteoEarth